Regional Weather Roundup
Issued by NWS

Home | Current Version | Previous Version | Text Only | Print | Product List | Glossary Off
Versions: 1 2 3 4 5 6 7 8 9 10 11 12 13 14 15 16 17 18 19 20 21 22 23 24 25 26 27 28 29 30 31 32 33 34 35 36 37 38 39 40 41 42 43 44 45 46 47 48 49 50

000
ASUS43 KIND 231409
RWRIN

WEATHER ROUNDUP FOR INDIANA
NATIONAL WEATHER SERVICE INDIANAPOLIS IN
1000 AM EDT TUE MAY 23 2017

NOTE: "FAIR" INDICATES FEW OR NO CLOUDS BELOW 12,000 FEET WITH NO
SIGNIFICANT WEATHER AND/OR OBSTRUCTIONS TO VISIBILITY.

* - STATION DOES NOT REPORT WEATHER SUCH AS PRECIPITATION OR FOG.

+ - STATION NOT QUALITY CONTROLLED BY THE NATIONAL WEATHER SERVICE.
    USE DATA WITH CAUTION...ESPECIALLY DEWPOINT AND RELATIVE
    HUMIDITY OBSERVATIONS.

INZ001>003-010>013-019-020-231500-
NORTHWEST INDIANA

CITY           SKY/WX    TMP DP  RH WIND       PRES   REMARKS
GARY /AIRPORT/ LGT RAIN  61  54  77 SW10      29.84S
KNOX *+        PTSUNNY   61  46  59 SE7       29.83F
LA PORTE +     PTSUNNY   61  54  78 CALM      29.84S
MICHIGAN CITY+ PTSUNNY   61  52  72 S3        29.84S
MONTICELLO +   CLOUDY    63  53  70 SE5       29.84F
RENSSELAER +   CLOUDY    61  54  77 S5        29.84S
VALPARAISO     CLOUDY    64  55  72 SW8       29.84S

$$

LMZ046-743>745-231500-
SOUTHERN LAKE MICHIGAN

STATION/POSITION TIME  TEMP    WIND        PRES    WAVE
                       AIR SEA DIR/SP/G            HT
                 (UTC) (F)     (DEG/KT/KT) (MB)    (FT)
BURNS HARBOR     1340   61     210/  8/ 11 1010.5S
MICHIGAN CITY    1340   61     160/  4/  5   N/A
5NW MICH CITY    1400   56 53  230/  6/  6   N/A     1

$$

INZ004-005-014>016-021>024-231500-
NORTH CENTRAL INDIANA

CITY           SKY/WX    TMP DP  RH WIND       PRES   REMARKS
ELKHART        LGT RAIN  63  54  72 CALM      29.85S
GOSHEN         CLOUDY    64  50  60 S6        29.85F
LOGANSPORT +   CLOUDY    63  50  63 SE5       29.85F
PERU/GRISSOM   CLOUDY    63  51  63 S3        29.83F
ROCHESTER +    MOSUNNY   64  52  63 CALM      29.85F
SOUTH BEND     LGT RAIN  60  55  83 S5        29.85F
WARSAW +       MOSUNNY   63  52  67 SE3       29.85F

$$

INZ006>009-017-018-025>027-231500-
NORTHEAST INDIANA

CITY           SKY/WX    TMP DP  RH WIND       PRES   REMARKS
ANGOLA *+      PTSUNNY   64  55  72 SW5       29.86F
AUBURN +       CLOUDY    63  48  59 CALM      29.88S
FORT WAYNE     CLOUDY    65  51  60 S5        29.87F
HUNTINGTON +   CLOUDY    61  51  68 S3        29.85F
KENDALLVILLE + CLOUDY    63  50  63 S3        29.87F

$$

INZ028-029-035-036-043>045-051>053-231500-
WEST CENTRAL INDIANA

CITY           SKY/WX    TMP DP  RH WIND       PRES   REMARKS
CRAWFORDSVL +  CLOUDY    60  51  72 SE5       29.84F
GREENCASTLE +  CLOUDY    61  50  67 CALM      29.85S
LAFAYETTE      CLOUDY    62  53  72 CALM      29.83F
TERRE HAUTE    CLOUDY    62  51  67 SE5       29.84S

$$

INZ030>032-037>040-046>048-054>057-064-065-231500-
CENTRAL INDIANA

CITY           SKY/WX    TMP DP  RH WIND       PRES   REMARKS
CP ATTERBURY + SUNNY     64  52  63 E7        29.85F
COLUMBUS       SUNNY     63  48  59 SE7       29.85F
FRANKFORT +    CLOUDY    64  53  67 CALM      29.86F
GREENWOOD *+   SUNNY     64  49  58 SE5       29.85S
INDIANAPOLIS   CLOUDY    63  50  62 SE9       29.84F
-EAGLE CREEK   CLOUDY    64  49  57 SE9       29.84F
KOKOMO +       CLOUDY    61  51  70 CALM      29.86F
MARION +       PTSUNNY   63  48  59 SW3       29.86F
MT COMFORT *+  MOSUNNY   64  50  59 SE6       29.86R
SHELBYVILLE    MOSUNNY   67  48  50 SE10      29.84S
ZIONSVILLE +   CLOUDY    63  50  63 SE8       29.85F

$$

INZ033-034-041-042-049-050-058-059-231500-
EAST CENTRAL INDIANA

CITY           SKY/WX    TMP DP  RH WIND       PRES   REMARKS
MUNCIE         MOSUNNY   66  46  48 SE10      29.85F
RICHMOND +     SUNNY     61  48  63 SE10      29.87F

$$

INZ060-061-067>069-081>083-085>088-231500-
SOUTHWEST INDIANA

CITY           SKY/WX    TMP DP  RH WIND       PRES   REMARKS
EVANSVILLE     CLOUDY    68  53  58 CALM      29.82F
HUNTINGBURG *+ CLOUDY    64  55  72 CALM      29.83F
WASHINGTON +   PTSUNNY   64  50  61 SE5       29.83F

$$

INZ062-063-066-070>080-084-089>092-231500-
SOUTH CENTRAL AND SOUTHEAST INDIANA

CITY           SKY/WX    TMP DP  RH WIND       PRES   REMARKS
BEDFORD +      CLOUDY    63  52  67 E6        29.83
BLOOMINGTON    MOSUNNY   64  50  60 SE7       29.84S
MADISON *+     MOSUNNY   63  50  63 SE9       29.86S
NORTH VERNON + CLOUDY    61  50  67 E6        29.85S
SEYMOUR +      CLOUDY    64  52  63 SE6       29.83F

$$




USA.gov is the U.S. government's official web portal to all federal, state and local government web resources and services.